SCP
0 0 0 0 0 0 0 0 0 0 0 0 0 0 0 0 0 0 0 0 0 0 0 0 0 0 0 0 0 0 0 0 0 0 0 0 0 0 0 0 0 0 0 0
0 0 0 0 0 0 0 0 0 0 0 0 0 0 0 0 0 0 0 0 0 0 0 0 0 0 0 0 0 0 0 0 0 0 0 0 0 0 0 0 0 0 0 0
0 0 0 0 0 0 0 0 0 0 0 0 0 0 0 0 0 0 0 0 0 0 0 0 0 0 0 0 0 0 0 0 0 0 0 0 0 0 0 0 0 0 0 0
0 0 0 0 0 0 0 0 0 0 0 0 0 0 0 0 0 0 0 0 0 0 0 0 0 0 0 0 0 0 0 0 0 0 0 0 0 0 0 0 0 0 0 0
0 0 0 0 0 0 0 0 0 0 0 0 0 0 0 0 0 0 0 0 0 0 0 0 0 0 0 0 0 0 0 0 0 0 0 0 0 0 0 0 0 0 0 0
0 0 0 0 0 0 0 0 0 0 0 0 0 0 0 0 0 0 0 0 0 0 0 0 0 0 0 0 0 0 0 0 0 0 0 0 0 0 0 0 0 0 0 0
0 0 0 0 0 0 0 0 0 0 0 0 0 0 0 0 0 0 0 0 0 0 0 0 0 0 0 0 0 0 0 0 0 0 0 0 0 0 0 0 0 0 0 0
0 0 0 0 0 0 0 0 0 0 0 0 0 0 0 0 0 0 0 0 0 0 0 0 0 0 0 0 0 0 0 0 0 0 0 0 0 0 0 0 0 0 0 0
0 0 0 0 0 0 0 0 0 0 0 0 0 0 0 0 0 0 0 0 0 0 0 0 0 0 0 0 0 0 0 0 0 0 0 0 0 0 0 0 0 0 0 0
0 0 0 0 0 0 0 0 0 0 0 0 0 0 0 0 0 0 0 0 0 0 0 0 0 0 0 0 0 0 0 0 0 0 0 0 0 0 0 0 0 0 0 0
0 0 0 0 0 0 0 0 0 0 0 0 0 0 0 0 0 0 0 0 0 0 0 0 0 0 0 0 0 0 0 0 0 0 0 0 0 0 0 0 0 0 0 0
0 0 0 0 0 0 0 0 0 0 0 0 0 0 0 0 0 0 0 0 0 0 0 0 0 0 0 0 0 0 0 0 0 0 0 0 0 0 0 0 0 0 0 0
0 0 0 0 0 0 0 0 0 0 0 0 0 0 0 0 0 0 0 0 0 0 0 0 0 0 0 0 0 0 0 0 0 0 0 0 0 0 0 0 0 0 0 0
0 0 0 0 0 0 0 0 0 0 0 0 0 0 0 0 0 0 0 0 0 0 0 0 0 0 0 0 0 0 0 0 0 0 0 0 0 0 0 0 0 0 0 0
0 0 0 0 0 0 0 0 0 0 0 0 0 0 0 0 0 0 0 0 0 0 0 0 0 0 0 0 0 0 0 0 0 0 0 0 0 0 0 0 0 0 0 0
0 0 0 0 0 0 0 0 0 0 0 0 0 0 0 0 0 0 0 0 0 0 0 0 0 0 0 0 0 0 0 0 0 0 0 0 0 0 0 0 0 0 0 0
0 0 0 0 0 0 0 0 0 0 0 0 0 0 0 0 0 0 0 0 0 0 0 0 0 0 0 0 0 0 0 0 0 0 0 0 0 0 0 0 0 0 0 0
0 0 0 0 0 0 0 0 0 0 0 0 0 0 0 0 0 0 0 0 0 0 0 0 0 0 0 0 0 0 0 0 0 0 0 0 0 0 0 0 0 0 0 0
0 0 0 0 0 0 0 0 0 0 0 0 0 0 0 0 0 0 0 0 0 0 0 0 0 0 0 0 0 0 0 0 0 0 0 0 0 0 0 0 0 0 0 0
0 0 0 0 0 0 0 0 0 0 0 0 0 0 0 0 0 0 0 0 0 0 0 0 0 0 0 0 0 0 0 0 0 0 0 0 0 0 0 0 0 0 0 0
0 0 0 0 0 0 0 0 0 0 0 0 0 0 0 0 0 0 0 0 0 0 0 0 0 0 0 0 0 0 0 0 0 0 0 0 0 0 0 0 0 0 0 0
0 0 -0 0 0 0 0 0 0 0 0 0 0 0 0 0 0 0 0 0 0 0 0 0 0 0 0 0 0 0 0 0 0 0 0 0 0 0 0 0 0 0 0 0
-0 -0 -0 0 0 0 0 0 0 0 0 0 0 0 0 0 0 0 0 0 0 0 0 0 0 0 0 0 0 0 0 0 0 0 0 0 0 0 0 0 0 0 0 0
-0 -0 -0 0 0 0 0 0 0 0 0 0 0 0 0 0 0 0 0 0 0 0 0 0 0 0 0 0 0 0 0 0 0 0 0 0 0 0 0 0 0 0 0 0
0 0 0 0 0 0 0 0 0 0 0 0 0 0 0 0 0 0 0 0 0 0 0 0 0 0 0 0 0 0 0 0 0 0 0 0 0 0 0 0 0 0 0 0
0 0 0 0 0 0 0 0 0 0 0 0 0 0 0 0 0 0 0 0 0 0 0 0 0 0 0 0 0 0 0 0 0 0 0 0 0 0 0 0 0 0 0 0
0 0 0 0 0 0 0 0 0 0 0 0 0 0 0 0 0 0 0 0 0 0 0 0 0 0 0 0 0 0 0 0 0 0 0 0 0 0 0 0 0 0 0 0
Wind_Speed
5 5 4 4 4 5 5 6 7 6 6 7 7 6 6 6 5 6 6 7 8 8 7 7 7 7 7 7 7 7 7 6 6 5 5 5 5 4 4 4 5 4 4 3
2 3 3 3 4 5 5 5 5 4 5 5 4 3 4 5 6 7 7 8 8 8 8 8 8 8 8 8 8 8 8 7 6 6 5 5 5 5 5 4 4 4 4 4
2 3 1 4 5 6 5 5 7 7 7 4 3 5 6 6 7 8 8 8 8 8 8 8 8 8 9 8 7 7 7 6 6 6 6 6 6 6 5 4 4 4 3 3
1 1 3 7 4 4 5 4 4 4 5 7 7 5 4 5 7 7 7 7 8 7 7 6 6 6 7 7 7 7 7 6 6 6 6 6 6 6 5 4 4 4 3 3
3 2 4 5 2 2 4 2 3 5 5 6 6 4 1 2 5 7 8 8 8 8 7 6 6 7 7 7 7 7 7 7 7 7 7 6 6 6 4 4 4 4 3 3
4 3 5 6 4 2 4 1 2 4 6 6 6 3 4 3 3 4 4 5 6 5 5 6 6 7 8 7 7 7 7 7 7 7 7 7 6 5 4 4 4 5 4 3
4 3 6 6 3 3 4 6 3 5 6 7 5 5 4 3 3 3 4 5 6 6 6 6 7 8 8 7 7 7 6 6 6 6 6 6 5 4 5 5 5 4 4 2
4 3 7 4 2 4 6 3 3 4 5 5 4 3 3 3 3 3 4 5 6 6 5 4 6 8 8 7 7 6 6 6 6 5 5 5 5 4 5 5 5 4 3 2
7 7 6 3 4 4 4 4 3 4 5 6 5 4 3 3 3 3 4 5 5 6 5 3 4 7 8 6 6 6 6 6 6 5 4 5 6 5 4 4 4 4 3 3
2 3 3 2 2 2 4 4 4 5 6 6 5 5 4 3 3 3 4 5 5 6 6 4 4 5 6 6 6 7 7 6 6 6 5 4 4 4 4 4 4 4 4 3
2 3 1 2 2 3 3 4 5 4 4 6 7 5 4 4 4 4 4 4 5 6 6 5 5 4 5 6 8 7 7 6 5 5 5 4 3 3 4 3 5 6 4 4
6 6 5 5 4 5 6 5 5 5 4 3 5 6 5 4 4 4 4 4 5 5 5 5 5 5 5 6 8 8 6 6 5 4 4 4 4 2 2 2 3 5 6 5
6 4 4 4 3 4 5 5 5 6 6 4 3 4 5 5 4 4 5 5 5 5 5 5 5 5 5 6 7 8 7 6 5 4 4 4 4 4 2 2 2 2 3 4
3 4 2 3 3 4 5 5 4 4 4 5 4 5 5 5 5 5 5 4 5 5 5 5 6 4 4 5 7 7 6 6 5 4 4 4 4 4 4 4 2 0 0 2
3 4 5 4 3 4 5 6 6 4 4 3 4 6 6 6 6 4 4 4 5 5 5 5 5 4 4 5 6 6 6 5 4 4 3 4 4 4 3 4 3 2 1 1
2 2 4 5 5 6 7 7 7 5 5 4 5 5 5 6 5 5 4 5 6 6 4 4 4 3 5 6 6 5 5 7 6 5 4 4 3 4 3 3 3 3 2 2
5 4 4 5 5 6 6 7 7 7 6 5 6 6 6 6 6 5 4 4 5 5 4 4 4 3 4 5 5 4 4 5 7 5 4 4 4 4 4 3 3 3 2 3
7 8 8 8 7 6 5 5 6 6 7 6 6 7 7 7 7 6 5 5 5 4 3 3 3 4 4 4 4 4 4 4 4 4 3 3 3 3 3 3 3 3 2 2
5 6 6 7 7 6 6 6 6 6 6 7 8 8 7 7 6 6 6 6 6 4 2 2 5 5 4 4 5 4 4 4 4 3 3 4 4 3 3 3 3 3 2 2
5 6 6 6 6 6 6 5 6 6 6 7 8 8 7 6 6 6 6 4 3 3 3 4 4 4 4 4 5 3 4 4 4 3 3 3 3 3 3 3 3 3 2 3
6 6 6 6 5 6 6 7 7 7 6 8 9 9 8 6 6 6 6 4 1 3 4 6 4 3 3 4 5 4 4 4 4 3 3 3 3 3 2 2 2 2 2 2
5 6 6 6 6 5 4 5 6 7 7 7 8 8 8 7 6 5 3 3 4 5 4 3 3 4 5 6 4 4 4 4 3 3 3 3 2 2 2 2 2 2 2 2
4 5 6 6 6 6 4 5 6 7 8 9 9 9 8 6 5 6 4 2 3 6 4 3 5 7 8 5 4 4 4 4 3 3 2 2 2 2 2 2 2 2 2 2
3 5 5 5 6 7 6 4 5 5 7 7 7 7 8 6 3 2 3 5 6 6 4 5 8 8 8 4 4 3 3 3 3 2 2 2 2 2 2 2 1 1 1 2
4 5 6 7 7 5 6 6 6 6 7 5 6 5 4 4 5 4 4 5 7 6 4 6 8 8 5 4 3 3 3 3 3 3 2 2 2 2 2 1 1 1 1 1
4 4 5 5 5 5 5 6 5 5 6 6 5 4 4 4 5 5 4 4 6 6 4 3 4 5 4 4 3 3 3 3 3 3 2 2 2 2 2 1 1 1 1 1
4 4 4 4 3 4 5 5 6 5 6 7 6 4 5 5 5 5 5 4 4 4 3 3 3 3 3 3 3 3 3 2 2 2 2 2 2 2 2 2 1 1 1 1
Wind_Direction
221 225 197 212 214 198 186 182 179 204 205 222 213 193 179 169 162 157 162 168 173 177 180 180 178 175 173 171 169 165 160 163 171 168 159 151 149 145 141 137 137 138 129 125
267 248 228 233 229 207 201 185 185 183 226 224 202 178 159 163 167 173 175 180 181 178 178 181 180 177 173 172 172 164 164 171 168 159 155 153 153 145 135 132 130 122 122 129
260 300 358 259 230 204 196 190 177 200 216 177 160 176 180 179 181 183 182 183 181 182 183 185 183 177 176 175 166 160 163 164 165 161 159 161 156 143 141 142 133 125 125 127
158 72 227 249 258 184 175 202 195 184 179 171 174 176 178 180 179 187 186 184 183 184 184 182 174 168 163 160 161 162 161 164 169 166 164 158 153 152 154 149 145 142 144 140
134 178 269 286 287 166 157 229 205 173 167 159 139 93 5 231 187 191 189 183 182 182 176 169 166 160 149 151 157 160 165 171 175 168 162 159 162 164 161 151 149 148 145 137
139 167 225 246 260 196 115 250 260 160 160 159 144 139 238 230 186 179 176 171 169 162 157 161 165 154 150 157 162 173 176 174 169 164 161 163 167 163 156 151 150 141 134 137
162 200 252 252 254 104 143 225 232 174 165 157 173 189 200 182 162 162 161 156 151 148 158 172 165 156 156 160 176 181 170 163 160 161 162 160 153 149 146 141 136 136 132 126
157 186 246 256 130 165 205 208 157 158 163 153 155 147 146 151 152 144 140 139 144 146 154 161 160 157 159 172 179 164 153 151 153 152 156 152 141 141 141 139 137 140 133 119
183 208 232 226 196 200 164 147 155 152 153 145 140 140 134 142 144 139 138 140 145 143 139 142 158 157 160 173 160 146 143 147 145 139 135 137 140 141 138 141 144 150 149 153
192 253 249 233 197 153 145 146 154 149 147 142 139 140 133 136 131 127 131 138 138 135 137 147 157 158 159 155 149 144 147 147 144 138 133 130 133 141 147 156 158 160 161 165
206 254 288 270 196 151 117 110 118 124 136 143 139 142 142 140 137 134 130 130 134 140 144 155 160 158 149 147 144 143 146 147 147 143 142 136 133 147 162 180 179 173 180 175
213 214 187 220 212 162 141 142 144 132 113 124 139 144 138 139 141 134 130 128 129 132 137 147 144 147 149 149 147 146 147 150 148 143 141 140 136 106 67 125 164 175 177 172
205 207 194 199 184 165 150 151 150 143 143 139 132 136 136 132 130 128 126 129 139 143 142 140 137 140 149 150 147 150 153 152 149 150 152 155 154 148 133 46 63 132 162 169
175 144 161 188 183 173 149 141 127 119 128 134 132 129 130 123 121 127 136 141 136 130 129 131 131 138 150 147 146 147 145 148 150 157 162 164 163 161 158 155 148 37 73 155
205 181 180 175 156 150 140 132 127 127 128 119 129 134 138 136 138 139 138 132 121 117 122 126 124 133 140 139 142 143 143 147 147 145 150 156 154 150 153 157 157 155 111 92
208 167 153 151 161 160 151 148 149 160 157 146 145 147 147 144 138 127 126 130 128 131 137 134 134 141 140 137 135 138 143 148 145 145 147 144 146 151 156 158 161 164 172 180
162 184 179 175 175 175 172 167 164 165 163 157 159 149 136 128 123 122 123 130 131 132 135 137 142 138 134 134 137 139 139 145 145 142 149 156 160 165 165 163 167 177 191 181
190 195 186 177 175 173 174 167 162 163 164 162 151 141 140 142 146 145 137 125 111 99 103 130 131 128 129 132 134 135 139 145 152 154 156 159 162 161 159 163 171 178 185 179
186 183 182 178 174 168 167 167 164 165 162 152 149 151 151 147 143 139 132 127 128 131 149 129 118 118 125 136 131 131 137 140 142 146 150 152 149 148 155 164 173 180 173 170
183 181 180 177 170 164 164 163 157 155 156 149 142 139 137 139 137 132 125 124 148 163 155 131 124 126 133 139 129 131 135 136 138 141 141 147 153 158 162 167 170 170 172 178
182 176 169 169 170 167 164 159 156 157 156 150 148 150 149 144 139 133 129 126 156 135 129 122 121 125 126 124 120 124 128 131 135 140 143 149 153 157 161 166 168 172 176 179
171 163 165 164 159 162 165 158 154 152 150 145 141 140 138 137 135 126 130 151 160 139 128 125 128 125 121 114 114 117 119 123 128 131 135 142 147 150 157 164 173 178 178 180
165 164 163 162 160 156 148 147 148 150 151 150 148 150 148 149 151 146 146 160 148 134 127 134 131 122 114 107 111 114 119 122 126 131 137 140 143 146 152 160 171 174 178 182
151 155 158 150 136 134 139 146 140 141 140 138 143 147 143 136 124 120 133 140 138 128 125 130 123 116 111 111 115 118 120 123 128 133 134 131 132 135 141 144 148 154 159 165
144 142 139 138 139 146 146 134 122 122 122 120 121 124 127 138 142 142 135 140 139 126 123 126 119 115 114 120 122 123 126 130 128 128 129 130 130 131 136 142 149 147 146 159
147 150 153 155 151 146 144 139 136 138 133 129 126 125 122 120 125 129 130 135 135 128 128 133 132 122 123 126 126 124 123 123 118 116 122 127 129 133 139 141 140 142 151 168
134 131 124 119 125 136 138 139 140 145 146 144 140 140 137 135 134 135 134 135 136 135 133 132 133 133 130 127 125 123 119 116 117 119 122 123 128 135 141 137 137 137 147 158